TURKSAT 5A

Last updated on Sat Aug 22 2026 00:03:00 GMT+0000 (Coordinated Universal Time)

1 47306U 21001A 26233.26364253 .00000152 00000+0 00000+0 0 9997 2 47306 0.0132 94.2841 0000251 342.7382 18.3999 1.00272999 20621
UTC large
Height (km)
Speed (km/s)
/
Latitude / Longitude
Inclination (degrees)
Orbital Period (minutes)
Azimuth
Elevation
Range (km)
Doppler Factor

Next 0 passes for location: London (51.5072 / 0.1276)

No passes found over London.
TURKSAT 5A